Hourly Data Report for September 26, 2017

All times are specified in Local Standard Time (LST). Add 1 hour to adjust for Daylight Saving Time where and when it is observed.

WINNIPEG A CS
MANITOBA

49°55'00.000" N
97°14'58.000" W
238.70 m
502S001
71849
XWG

Download Data

Hourly Data (September 2017)
Hourly Data Report for September 26, 2017
Temp Definition
°C
Dew Point Temp Definition
°C
Rel Hum Definition
%
Wind Dir Definition
10's deg

Wind Spd Definition
km/h
Visibility Definition
km
Stn Press Definition
kPa
Hmdx Definition


Wind Chill Definition


Weather Definition


TIME
00:00 8.9 6.8 87 1 7   99.18     LegendNANA
01:00 8.9 7.1 89 2 6   99.21     LegendNANA
02:00 8.8 7.3 90 2 6   99.19     LegendNANA
03:00 8.4 7.3 93 2 8   99.15     LegendNANA
04:00 8.4 7.4 93 2 6   99.16     LegendNANA
05:00 8.6 7.6 94 1 8   99.14     LegendNANA
06:00 8.6 7.6 94 36 8   99.13     LegendNANA
07:00 8.6 7.6 93 3 11   99.08     LegendNANA
08:00 9.0 7.9 93 1 8   99.07     LegendNANA
09:00 9.3 7.9 91 36 9   99.10     LegendNANA
10:00 9.4 8.1 92 1 8   99.09     LegendNANA
11:00 9.4 8.1 92 35 6   99.07     LegendNANA
12:00 9.7 8.4 91 33 8   99.06     LegendNANA
13:00 9.7 8.3 91 33 7   99.04     LegendNANA
14:00 9.4 8.0 91 31 7   99.04     LegendNANA
15:00 9.3 7.8 90 29 7   99.02     LegendNANA
16:00 9.1 6.8 85 30 8   99.01     LegendNANA
17:00 9.1 7.3 88 31 12   98.99     LegendNANA
18:00 8.8 7.3 90 28 5   98.97     LegendNANA
19:00 8.1 7.2 94 25 6   98.98     LegendNANA
20:00 8.2 7.3 95 25 5   99.01     LegendNANA
21:00 7.9 7.2 95 23 5   99.00     LegendNANA
22:00 7.9 7.2 95 24 6   99.00     LegendNANA
23:00 6.0 5.6 97 22 6   99.00     LegendNANA

Notes on Data Quality.

Legend

  • E = Estimated
  • M = Missing
  • NA = Not Available
  • ‡ = Partner data that is not subject to review by the National Climate Archives
Date modified: